When you browse on this site, cookies collect data to enhance your experience and personalize the content and advertising you see.
Visit our Privacy Policy to learn more. By continuing to use the site, you agree to this use of cookies and data.

Meteo pe oră la Saintes

Astăzi, 5 Iulie, Duminică

Timp Temperatura Precipitaţii Vânt Presiune Umiditate
00:00 +17°C° 0 mm 3 m/s 766 mmHg 92%
01:00 +17°C° 0 mm 3 m/s 766 mmHg 92%
02:00 +18°C° 0 mm 3 m/s 765 mmHg 91%
03:00 +18°C° 0 mm 3 m/s 765 mmHg 91%
04:00 +19°C° 0 mm 3 m/s 765 mmHg 91%
05:00 +19°C° 0 mm 3 m/s 765 mmHg 91%
06:00 +19°C° 0 mm 3 m/s 765 mmHg 88%
07:00 +20°C° 0 mm 3 m/s 765 mmHg 86%
08:00 +21°C° 0 mm 4 m/s 765 mmHg 83%
09:00 +22°C° 0 mm 4 m/s 765 mmHg 80%
10:00 +23°C° 0 mm 4 m/s 765 mmHg 79%
11:00 +23°C° 0 mm 4 m/s 765 mmHg 78%
12:00 +23°C° 0 mm 4 m/s 765 mmHg 77%
13:00 +23°C° 0 mm 4 m/s 765 mmHg 77%
14:00 +23°C° 0 mm 4 m/s 764 mmHg 78%
15:00 +23°C° 0 mm 4 m/s 764 mmHg 78%
16:00 +22°C° 0 mm 5 m/s 764 mmHg 79%
17:00 +22°C° 0 mm 5 m/s 764 mmHg 80%
18:00 +22°C° 0 mm 5 m/s 764 mmHg 82%
19:00 +21°C° 0 mm 4 m/s 764 mmHg 82%
20:00 +20°C° 0 mm 4 m/s 764 mmHg 82%
21:00 +20°C° 0 mm 3 m/s 765 mmHg 83%
22:00 +19°C° 0 mm 3 m/s 765 mmHg 84%
23:00 +19°C° 0 mm 3 m/s 765 mmHg 85%

Mâine, 6 Iulie, Luni

Timp Temperatura Precipitaţii Vânt Presiune Umiditate
00:00 +19°C° 0 mm 3 m/s 765 mmHg 87%
01:00 +18°C° 0 mm 3 m/s 765 mmHg 88%
02:00 +17°C° 0 mm 4 m/s 765 mmHg 88%
03:00 +15°C° 0 mm 4 m/s 765 mmHg 89%
04:00 +14°C° 0 mm 4 m/s 765 mmHg 87%
05:00 +14°C° 0 mm 4 m/s 765 mmHg 85%
06:00 +14°C° 0 mm 4 m/s 765 mmHg 83%
07:00 +15°C° 0 mm 4 m/s 766 mmHg 76%
08:00 +17°C° 0 mm 4 m/s 766 mmHg 70%
09:00 +18°C° 0 mm 4 m/s 766 mmHg 63%
10:00 +19°C° 0 mm 4 m/s 766 mmHg 59%
11:00 +20°C° 0 mm 4 m/s 766 mmHg 56%
12:00 +21°C° 0 mm 4 m/s 766 mmHg 52%
13:00 +21°C° 0 mm 4 m/s 766 mmHg 53%
14:00 +21°C° 0 mm 5 m/s 766 mmHg 54%
15:00 +21°C° 0 mm 5 m/s 766 mmHg 55%
16:00 +21°C° 0 mm 5 m/s 766 mmHg 60%
17:00 +20°C° 0 mm 5 m/s 766 mmHg 64%
18:00 +20°C° 0 mm 5 m/s 766 mmHg 68%
19:00 +18°C° 0 mm 4 m/s 766 mmHg 71%
20:00 +17°C° 0 mm 4 m/s 766 mmHg 75%
21:00 +16°C° 0 mm 3 m/s 767 mmHg 78%
22:00 +14°C° 0 mm 3 m/s 767 mmHg 81%
23:00 +13°C° 0 mm 3 m/s 766 mmHg 83%

Poimâine, 7 Iulie, Marţi

Timp Temperatura Precipitaţii Vânt Presiune Umiditate
00:00 +12°C° 0 mm 3 m/s 766 mmHg 86%
01:00 +12°C° 0 mm 3 m/s 766 mmHg 88%
02:00 +11°C° 0 mm 3 m/s 766 mmHg 89%
03:00 +11°C° 0 mm 3 m/s 766 mmHg 91%
04:00 +11°C° 0 mm 3 m/s 766 mmHg 89%
05:00 +12°C° 0 mm 3 m/s 766 mmHg 87%
06:00 +12°C° 0 mm 3 m/s 765 mmHg 85%
07:00 +14°C° 0 mm 3 m/s 765 mmHg 78%
08:00 +17°C° 0 mm 3 m/s 765 mmHg 70%
09:00 +19°C° 0 mm 3 m/s 765 mmHg 63%
10:00 +21°C° 0 mm 3 m/s 765 mmHg 58%
11:00 +22°C° 0 mm 3 m/s 765 mmHg 53%
12:00 +24°C° 0 mm 3 m/s 764 mmHg 49%
13:00 +24°C° 0 mm 3 m/s 764 mmHg 48%
14:00 +25°C° 0 mm 4 m/s 764 mmHg 47%
15:00 +25°C° 0 mm 4 m/s 763 mmHg 47%
16:00 +25°C° 0 mm 4 m/s 763 mmHg 52%
17:00 +24°C° 0 mm 3 m/s 763 mmHg 57%
18:00 +24°C° 0 mm 3 m/s 763 mmHg 62%
19:00 +21°C° 0 mm 3 m/s 763 mmHg 65%
20:00 +19°C° 0 mm 3 m/s 763 mmHg 69%
21:00 +17°C° 0 mm 3 m/s 763 mmHg 72%
22:00 +17°C° 0 mm 3 m/s 763 mmHg 73%
23:00 +16°C° 0 mm 3 m/s 763 mmHg 75%

8 Iulie, Miercuri

Timp Temperatura Precipitaţii Vânt Presiune Umiditate
00:00 +14°C° 0 mm 3 m/s 763 mmHg 76%
01:00 +14°C° 0 mm 3 m/s 763 mmHg 78%
02:00 +13°C° 0 mm 3 m/s 762 mmHg 80%
03:00 +13°C° 0 mm 3 m/s 762 mmHg 82%
04:00 +14°C° 0 mm 3 m/s 762 mmHg 80%
05:00 +14°C° 0 mm 3 m/s 763 mmHg 79%
06:00 +16°C° 0 mm 3 m/s 763 mmHg 78%
07:00 +18°C° 0 mm 3 m/s 763 mmHg 72%
08:00 +20°C° 0 mm 3 m/s 763 mmHg 66%
09:00 +22°C° 0 mm 4 m/s 763 mmHg 60%
10:00 +25°C° 0 mm 4 m/s 763 mmHg 56%
11:00 +26°C° 0 mm 4 m/s 763 mmHg 51%
12:00 +27°C° 0 mm 4 m/s 763 mmHg 47%
13:00 +27°C° 0 mm 4 m/s 763 mmHg 46%
14:00 +28°C° 0 mm 4 m/s 763 mmHg 45%
15:00 +28°C° 0 mm 4 m/s 763 mmHg 45%
16:00 +28°C° 0 mm 4 m/s 762 mmHg 50%
17:00 +27°C° 0 mm 3 m/s 762 mmHg 56%
18:00 +26°C° 0 mm 3 m/s 762 mmHg 61%
19:00 +24°C° 0 mm 3 m/s 762 mmHg 64%
20:00 +22°C° 0 mm 3 m/s 763 mmHg 66%
21:00 +20°C° 0 mm 3 m/s 763 mmHg 69%
22:00 +19°C° 0 mm 4 m/s 763 mmHg 74%
23:00 +18°C° 0 mm 4 m/s 763 mmHg 80%

9 Iulie, Joi

Timp Temperatura Precipitaţii Vânt Presiune Umiditate
00:00 +18°C° 0 mm 4 m/s 763 mmHg 86%
01:00 +17°C° 0 mm 4 m/s 762 mmHg 88%
02:00 +17°C° 0 mm 4 m/s 762 mmHg 90%
03:00 +15°C° 0 mm 4 m/s 762 mmHg 92%
04:00 +17°C° 0 mm 4 m/s 762 mmHg 90%
05:00 +17°C° 0 mm 3 m/s 762 mmHg 88%
06:00 +18°C° 0 mm 3 m/s 762 mmHg 86%
07:00 +20°C° 0 mm 3 m/s 763 mmHg 78%
08:00 +22°C° 0 mm 3 m/s 763 mmHg 70%
09:00 +26°C° 0 mm 3 m/s 763 mmHg 63%
10:00 +27°C° 0 mm 3 m/s 762 mmHg 57%
11:00 +28°C° 0 mm 3 m/s 762 mmHg 52%
12:00 +30°C° 0 mm 3 m/s 762 mmHg 47%
13:00 +30°C° 0 mm 3 m/s 761 mmHg 47%
14:00 +30°C° 0 mm 3 m/s 761 mmHg 46%
15:00 +31°C° 0 mm 3 m/s 761 mmHg 45%
16:00 +29°C° 0 mm 3 m/s 760 mmHg 52%
17:00 +28°C° 0 mm 4 m/s 760 mmHg 58%
18:00 +27°C° 0 mm 4 m/s 760 mmHg 64%
19:00 +25°C° 0 mm 4 m/s 760 mmHg 70%
20:00 +22°C° 0 mm 4 m/s 760 mmHg 75%
21:00 +21°C° 0 mm 3 m/s 761 mmHg 81%
22:00 +20°C° 0 mm 3 m/s 761 mmHg 81%
23:00 +19°C° 0 mm 3 m/s 761 mmHg 81%

10 Iulie, Vineri

Timp Temperatura Precipitaţii Vânt Presiune Umiditate
00:00 +19°C° 0 mm 3 m/s 760 mmHg 81%
01:00 +18°C° 0 mm 3 m/s 760 mmHg 82%
02:00 +18°C° 0 mm 3 m/s 760 mmHg 82%
03:00 +17°C° 0 mm 3 m/s 760 mmHg 83%
04:00 +17°C° 0 mm 3 m/s 760 mmHg 84%
05:00 +18°C° 0 mm 3 m/s 760 mmHg 85%
06:00 +18°C° 0 mm 3 m/s 761 mmHg 86%
07:00 +19°C° 0 mm 4 m/s 761 mmHg 81%
08:00 +21°C° 0 mm 4 m/s 761 mmHg 77%
09:00 +22°C° 0 mm 4 m/s 762 mmHg 72%
10:00 +23°C° 0 mm 4 m/s 762 mmHg 69%
11:00 +25°C° 0 mm 5 m/s 762 mmHg 65%
12:00 +25°C° 0 mm 5 m/s 762 mmHg 62%
13:00 +25°C° 0 mm 5 m/s 762 mmHg 62%
14:00 +25°C° 0 mm 5 m/s 762 mmHg 63%
15:00 +23°C° 0 mm 5 m/s 762 mmHg 63%
16:00 +23°C° 0 mm 5 m/s 762 mmHg 64%
17:00 +23°C° 0 mm 4 m/s 762 mmHg 65%
18:00 +22°C° 0 mm 4 m/s 762 mmHg 66%
19:00 +21°C° 0 mm 4 m/s 762 mmHg 69%
20:00 +19°C° 0 mm 4 m/s 763 mmHg 72%
21:00 +18°C° 0 mm 4 m/s 763 mmHg 75%
22:00 +17°C° 0 mm 4 m/s 764 mmHg 75%
23:00 +15°C° 0 mm 5 m/s 764 mmHg 75%
Arată mai mult